Weather History for Salina, KS

Change the Weather History Date:

Monday, March 11, 2013

  Actual Average Record
Temperature  
Mean Temperature 31 °F 44 °F  
Max Temperature 44 °F 55 °F 86 °F (1972)
Min Temperature 18 °F 33 °F -11 °F (1948)
Degree Days  
Heating Degree Days 34 21  
Month to date heating degree days 297 252  
Since 1 July heating degree days 3919 4093  
Cooling Degree Days 0 0  
Month to date cooling degree days 0 0  
Year to date cooling degree days 0 0  
Moisture  
Dew Point 19 °F    
Average Humidity 58    
Maximum Humidity 77    
Minimum Humidity 38    
Precipitation  
Precipitation 0.00 in 0.07 in 1.10 in (2007)
Month to date precipitation 0.40 0.71  
Year to date precipitation 3.67 2.51  
Sea Level Pressure  
Sea Level Pressure 30.03 in    
Wind  
Wind Speed 9 mph (WNW)    
Max Wind Speed 17 mph    
Max Gust Speed 20 mph    
Visibility 10 miles    
Events      
T = Trace of Precipitation, MM = Missing Value Source: NWS Daily Summary

Daily Weather History Graph

Daily Weather History Graph

Search for Another Location

Airport:

Trip Planner

Search our weather history database for the weather conditions in past years. The results will help you decide how hot, cold, wet, or windy it might be!

Date:

Astronomy

Mar. 11, 2013 Rise Set
Actual Time 7:47 AM CDT 7:33 PM CDT
Civil Twilight 7:21 AM CDT 8:00 PM CDT
Nautical Twilight 6:50 AM CDT 8:31 PM CDT
Astronomical Twilight 6:19 AM CDT 9:02 PM CDT
Moon 7:22 AM CDT (3/11) 7:47 PM CDT (3/11)
Length of Visible Light 12h 39m
Length of Day
11h 46m
Waning Crescent, 0% of the Moon is Illuminated
Mar 11
Waning Crescent
Mar 11
New
Mar 19
First Quarter
Mar 27
Full
Apr 2
Last Quarter

Hourly Weather History & Observations

Time (CDT) Temp. Windchill Dew Point Humidity Pressure Visibility Wind Dir Wind Speed Gust Speed Precip Events Conditions
12:53 AM 28.0 °F 17.0 °F 19.0 °F 69% 30.07 in 10.0 mi NW 13.8 mph - N/A   Overcast
1:53 AM 25.0 °F 13.1 °F 18.0 °F 75% 30.06 in 10.0 mi NW 13.8 mph - N/A   Clear
2:53 AM 24.1 °F 13.7 °F 17.1 °F 75% 30.03 in 10.0 mi NW 10.4 mph - N/A   Clear
3:53 AM 23.0 °F 9.2 °F 16.0 °F 74% 30.04 in 10.0 mi WNW 17.3 mph - N/A   Clear
4:53 AM 21.0 °F 9.9 °F 15.1 °F 78% 30.04 in 10.0 mi WNW 10.4 mph - N/A   Clear
5:53 AM 19.9 °F 7.9 °F 12.9 °F 74% 30.03 in 10.0 mi WNW 11.5 mph - N/A   Clear
6:53 AM 19.0 °F 9.0 °F 12.0 °F 74% 30.04 in 10.0 mi WNW 8.1 mph - N/A   Clear
7:53 AM 19.0 °F 8.2 °F 12.0 °F 74% 30.05 in 10.0 mi NW 9.2 mph - N/A   Clear
8:53 AM 21.9 °F 10.4 °F 12.9 °F 68% 30.06 in 10.0 mi NW 11.5 mph - N/A   Clear
9:53 AM 25.0 °F 12.2 °F 15.1 °F 66% 30.08 in 10.0 mi NW 16.1 mph - N/A   Clear
10:53 AM 27.0 °F 16.1 °F 15.1 °F 61% 30.06 in 10.0 mi NW 12.7 mph - N/A   Clear
11:53 AM 28.9 °F 18.6 °F 17.1 °F 61% 30.05 in 10.0 mi NW 12.7 mph - N/A   Clear
12:53 PM 33.1 °F 24.4 °F 18.0 °F 54% 30.05 in 10.0 mi WNW 11.5 mph - N/A   Clear
1:53 PM 35.1 °F 26.9 °F 18.0 °F 50% 30.03 in 10.0 mi NW 11.5 mph - N/A   Clear
2:53 PM 39.0 °F 32.3 °F 19.0 °F 45% 30.00 in 10.0 mi West 10.4 mph - N/A   Clear
3:53 PM 41.0 °F 35.2 °F 18.0 °F 40% 29.99 in 10.0 mi WNW 9.2 mph - N/A   Clear
4:53 PM 42.1 °F 37.1 °F 19.9 °F 41% 29.99 in 10.0 mi WNW 8.1 mph - N/A   Clear
5:53 PM 42.8 °F 41.1 °F 19.4 °F 39% 29.94 in 10.0 mi SW 3.5 mph - N/A   Clear
6:53 PM 42.1 °F 39.2 °F 25.0 °F 51% 29.98 in 10.0 mi South 4.6 mph - N/A   Clear
7:53 PM 39.0 °F 34.8 °F 26.1 °F 60% 29.99 in 10.0 mi SSE 5.8 mph - N/A   Partly Cloudy
8:53 PM 37.0 °F 32.4 °F 28.9 °F 73% 29.99 in 10.0 mi South 5.8 mph - N/A   Clear
9:53 PM 39.9 °F 32.9 °F 28.9 °F 65% 30.00 in 10.0 mi SSW 11.5 mph - N/A   Scattered Clouds
10:53 PM 43.0 °F 41.3 °F 28.9 °F 58% 30.04 in 10.0 mi West 3.5 mph - N/A   Overcast
11:53 PM 39.0 °F 36.8 °F 30.9 °F 73% 30.05 in 10.0 mi West 3.5 mph - N/A   Mostly Cloudy